When you browse on this site, cookies collect data to enhance your experience and personalize the content and advertising you see.
Visit our Privacy Policy to learn more. By continuing to use the site, you agree to this use of cookies and data.
  • In Sweden
  • List of Countries
  • For 7 days
  • Water Temperature
  • Weather Map
  • Weather Widgets
  • user-avatar
    Login

    Hourly Weather Rogozino

    Today, 3 June, Wednesday

    Time Temperature Precipitation Wind Pressure Humidity
    00:00 +8°C° 0 mm 2 mps 746 mmHg 92%
    01:00 +8°C° 0 mm 2 mps 745 mmHg 95%
    02:00 +7°C° 0 mm 2 mps 745 mmHg 95%
    03:00 +7°C° 0 mm 2 mps 745 mmHg 95%
    04:00 +7°C° 0 mm 2 mps 744 mmHg 95%
    05:00 +9°C° 0 mm 2 mps 744 mmHg 88%
    06:00 +12°C° 0 mm 2 mps 744 mmHg 82%
    07:00 +14°C° 0 mm 2 mps 745 mmHg 75%
    08:00 +13°C° 0.2 mm 3 mps 744 mmHg 72%
    09:00 +14°C° 0.2 mm 3 mps 744 mmHg 69%
    10:00 +14°C° 0.2 mm 4 mps 744 mmHg 66%
    11:00 +16°C° 0.2 mm 3 mps 744 mmHg 66%
    12:00 +16°C° 0.2 mm 3 mps 744 mmHg 67%
    13:00 +16°C° 0 mm 3 mps 744 mmHg 66%
    14:00 +16°C° 0.2 mm 3 mps 743 mmHg 66%
    15:00 +16°C° 0.2 mm 3 mps 743 mmHg 66%
    16:00 +17°C° 0.2 mm 3 mps 742 mmHg 66%
    17:00 +16°C° 0.3 mm 2 mps 742 mmHg 71%
    18:00 +15°C° 0.3 mm 2 mps 742 mmHg 77%
    19:00 +14°C° 0.3 mm 2 mps 742 mmHg 82%
    20:00 +12°C° 0 mm 2 mps 742 mmHg 85%
    21:00 +11°C° 0 mm 1 mps 742 mmHg 88%
    22:00 +10°C° 0 mm 1 mps 742 mmHg 91%
    23:00 +9°C° 0 mm 1 mps 742 mmHg 91%

    Tomorrow, 4 June, Thursday

    Time Temperature Precipitation Wind Pressure Humidity
    00:00 +9°C° 0 mm 1 mps 742 mmHg 91%
    01:00 +9°C° 0 mm 1 mps 742 mmHg 92%
    02:00 +8°C° 0 mm 1 mps 741 mmHg 92%
    03:00 +8°C° 0 mm 1 mps 741 mmHg 92%
    04:00 +8°C° 0 mm 1 mps 741 mmHg 92%
    05:00 +10°C° 0 mm 1 mps 741 mmHg 88%
    06:00 +12°C° 0 mm 1 mps 741 mmHg 84%
    07:00 +13°C° 0 mm 1 mps 740 mmHg 79%
    08:00 +15°C° 0 mm 1 mps 740 mmHg 72%
    09:00 +16°C° 0 mm 1 mps 740 mmHg 65%
    10:00 +19°C° 0 mm 1 mps 740 mmHg 58%
    11:00 +19°C° 0 mm 1 mps 739 mmHg 55%
    12:00 +19°C° 0 mm 2 mps 739 mmHg 51%
    13:00 +20°C° 0 mm 2 mps 739 mmHg 48%
    14:00 +20°C° 0 mm 2 mps 738 mmHg 49%
    15:00 +20°C° 0 mm 2 mps 738 mmHg 49%
    16:00 +20°C° 0 mm 2 mps 738 mmHg 50%
    17:00 +19°C° 0 mm 2 mps 738 mmHg 56%
    18:00 +18°C° 0 mm 2 mps 737 mmHg 62%
    19:00 +16°C° 0 mm 2 mps 737 mmHg 68%
    20:00 +14°C° 0 mm 3 mps 737 mmHg 69%
    21:00 +13°C° 0 mm 3 mps 737 mmHg 69%
    22:00 +12°C° 0 mm 4 mps 737 mmHg 69%
    23:00 +12°C° 0 mm 4 mps 737 mmHg 70%

    Day after tomorrow, 5 June, Friday

    Time Temperature Precipitation Wind Pressure Humidity
    00:00 +12°C° 0 mm 4 mps 736 mmHg 72%
    01:00 +12°C° 0 mm 5 mps 736 mmHg 73%
    02:00 +12°C° 0 mm 4 mps 735 mmHg 74%
    03:00 +13°C° 0 mm 4 mps 735 mmHg 74%
    04:00 +13°C° 0 mm 4 mps 734 mmHg 74%
    05:00 +14°C° 0 mm 4 mps 734 mmHg 76%
    06:00 +15°C° 0 mm 4 mps 734 mmHg 78%
    07:00 +16°C° 0 mm 5 mps 734 mmHg 80%
    08:00 +18°C° 0.1 mm 4 mps 734 mmHg 79%
    09:00 +19°C° 0.1 mm 4 mps 734 mmHg 78%
    10:00 +20°C° 0.1 mm 4 mps 734 mmHg 77%
    11:00 +17°C° 0.5 mm 5 mps 735 mmHg 81%
    12:00 +16°C° 0.5 mm 6 mps 735 mmHg 84%
    13:00 +14°C° 0.5 mm 7 mps 735 mmHg 88%
    14:00 +15°C° 0 mm 6 mps 736 mmHg 86%
    15:00 +15°C° 0 mm 5 mps 736 mmHg 84%
    16:00 +15°C° 0 mm 4 mps 737 mmHg 81%
    17:00 +16°C° 0 mm 3 mps 737 mmHg 82%
    18:00 +15°C° 0 mm 2 mps 737 mmHg 82%
    19:00 +15°C° 0 mm 1 mps 738 mmHg 83%
    20:00 +14°C° 0.5 mm 2 mps 738 mmHg 87%
    21:00 +14°C° 0.5 mm 2 mps 738 mmHg 91%
    22:00 +12°C° 0.5 mm 3 mps 738 mmHg 95%
    23:00 +12°C° 0.7 mm 3 mps 738 mmHg 95%

    6 June, Saturday

    Time Temperature Precipitation Wind Pressure Humidity
    00:00 +12°C° 0.7 mm 3 mps 738 mmHg 96%
    01:00 +12°C° 0.7 mm 3 mps 738 mmHg 96%
    02:00 +11°C° 0 mm 4 mps 738 mmHg 96%
    03:00 +11°C° 0 mm 4 mps 739 mmHg 95%
    04:00 +9°C° 0 mm 5 mps 739 mmHg 95%
    05:00 +10°C° 0 mm 6 mps 739 mmHg 89%
    06:00 +13°C° 0 mm 6 mps 740 mmHg 84%
    07:00 +14°C° 0 mm 7 mps 740 mmHg 79%
    08:00 +15°C° 0 mm 8 mps 741 mmHg 74%
    09:00 +16°C° 0 mm 8 mps 741 mmHg 69%
    10:00 +18°C° 0 mm 8 mps 741 mmHg 64%
    11:00 +18°C° 0.2 mm 9 mps 742 mmHg 64%
    12:00 +18°C° 0.2 mm 9 mps 742 mmHg 64%
    13:00 +18°C° 0.2 mm 9 mps 742 mmHg 64%
    14:00 +18°C° 0.1 mm 8 mps 743 mmHg 64%
    15:00 +18°C° 0.1 mm 8 mps 743 mmHg 63%
    16:00 +18°C° 0.1 mm 7 mps 743 mmHg 63%
    17:00 +17°C° 0.1 mm 6 mps 743 mmHg 67%
    18:00 +16°C° 0.1 mm 5 mps 743 mmHg 72%
    19:00 +15°C° 0.1 mm 4 mps 744 mmHg 77%
    20:00 +14°C° 0 mm 4 mps 744 mmHg 80%
    21:00 +13°C° 0 mm 4 mps 745 mmHg 83%
    22:00 +12°C° 0 mm 3 mps 745 mmHg 86%
    23:00 +13°C° 0 mm 3 mps 745 mmHg 84%

    7 June, Sunday

    Time Temperature Precipitation Wind Pressure Humidity
    00:00 +13°C° 0 mm 3 mps 745 mmHg 83%
    01:00 +15°C° 0 mm 2 mps 746 mmHg 81%
    02:00 +15°C° 0 mm 2 mps 746 mmHg 82%
    03:00 +15°C° 0 mm 1 mps 746 mmHg 83%
    04:00 +14°C° 0 mm 1 mps 746 mmHg 85%
    05:00 +15°C° 0.5 mm 1 mps 746 mmHg 86%
    06:00 +16°C° 0.5 mm 1 mps 746 mmHg 86%
    07:00 +16°C° 0.5 mm 2 mps 746 mmHg 87%
    08:00 +18°C° 0.6 mm 1 mps 746 mmHg 86%
    09:00 +19°C° 0.6 mm 1 mps 746 mmHg 84%
    10:00 +19°C° 0.6 mm 1 mps 746 mmHg 82%
    11:00 +21°C° 0.3 mm 1 mps 746 mmHg 78%
    12:00 +22°C° 0.3 mm 1 mps 746 mmHg 73%
    13:00 +23°C° 0.3 mm 1 mps 745 mmHg 68%
    14:00 +24°C° 0.2 mm 1 mps 745 mmHg 66%
    15:00 +24°C° 0.2 mm 1 mps 745 mmHg 64%
    16:00 +24°C° 0.2 mm 2 mps 745 mmHg 61%
    17:00 +23°C° 0 mm 2 mps 745 mmHg 67%
    18:00 +21°C° 0 mm 2 mps 745 mmHg 73%
    19:00 +20°C° 0 mm 2 mps 745 mmHg 79%
    20:00 +19°C° 0 mm 2 mps 745 mmHg 82%
    21:00 +17°C° 0 mm 2 mps 745 mmHg 85%
    22:00 +16°C° 0 mm 2 mps 746 mmHg 88%
    23:00 +15°C° 0 mm 2 mps 746 mmHg 88%

    8 June, Monday

    Time Temperature Precipitation Wind Pressure Humidity
    00:00 +15°C° 0 mm 2 mps 746 mmHg 88%
    01:00 +14°C° 0 mm 2 mps 746 mmHg 88%
    02:00 +14°C° 0 mm 2 mps 746 mmHg 89%
    03:00 +14°C° 0 mm 2 mps 746 mmHg 90%
    04:00 +13°C° 0 mm 2 mps 746 mmHg 92%
    05:00 +15°C° 0 mm 2 mps 746 mmHg 88%
    06:00 +17°C° 0 mm 2 mps 746 mmHg 84%
    07:00 +19°C° 0 mm 3 mps 746 mmHg 80%
    08:00 +20°C° 0 mm 3 mps 746 mmHg 75%
    09:00 +22°C° 0 mm 3 mps 746 mmHg 70%
    10:00 +24°C° 0 mm 3 mps 746 mmHg 65%
    11:00 +24°C° 0.2 mm 3 mps 746 mmHg 65%
    12:00 +25°C° 0.2 mm 3 mps 746 mmHg 65%
    13:00 +25°C° 0.2 mm 3 mps 745 mmHg 65%
    14:00 +24°C° 1.9 mm 2 mps 745 mmHg 70%
    15:00 +23°C° 1.9 mm 2 mps 745 mmHg 76%
    16:00 +23°C° 1.9 mm 2 mps 745 mmHg 81%
    17:00 +21°C° 1.1 mm 2 mps 745 mmHg 85%
    18:00 +20°C° 1.1 mm 2 mps 745 mmHg 88%
    19:00 +19°C° 1.1 mm 2 mps 745 mmHg 91%
    20:00 +18°C° 0.5 mm 2 mps 745 mmHg 93%
    21:00 +17°C° 0.5 mm 2 mps 746 mmHg 94%
    22:00 +17°C° 0.5 mm 2 mps 746 mmHg 96%
    23:00 +16°C° 0.3 mm 2 mps 746 mmHg 97%
    Show more